Regional Weather Roundup
Issued by NWS

Home | Current Version | Previous Version | Text Only | Print | Product List | Glossary On
Versions: 1 2 3 4 5 6 7 8 9 10 11 12 13 14 15 16 17 18 19 20 21 22 23 24 25 26 27 28 29 30 31 32 33 34 35 36 37 38 39 40 41 42 43 44 45 46 47 48 49 50
000
ASUS43 KDTX 222001
RWRMI
MICHIGAN HOURLY REGIONAL WEATHER ROUNDUP
NATIONAL WEATHER SERVICE DETROIT/PONTIAC MI
300 PM EST SUN JAN 22 2017

NOTE: "FAIR" INDICATES FEW OR NO CLOUDS BELOW 12,000 FEET WITH NO
SIGNIFICANT WEATHER AND/OR OBSTRUCTION TO VISIBILITY.

MIZ047>049-052>055-059>063-066>070-074>076-081>083-222100-
SOUTHEAST LOWER MICHIGAN

CITY           SKY/WX    TMP DP  RH WIND       PRES   REMARKS
ADRIAN         SUNNY     54  49  83 NE8       29.57F
ALMA           CLOUDY    43  42  97 N6        29.63R FOG
ANN ARBOR      CLOUDY    52  49  89 NW7       29.58S
BAD AXE        FOG       42  42 100 E5        29.63S VSB 1/2
CARO           FOG       44  44  98 N5        29.62R VSB<1/4
DETROIT CITY   FOG       46  46 100 E7        29.61S VSB 1/4
DETROIT        FOG       48  48 100 NE7       29.60S VSB 1/16
FLINT          FOG       48  47  96 N5        29.60F VSB 1/2
GROSSE ILE     FOG       48  48  99 NE8       29.58S VSB 1/4
HILLSDALE      CLOUDY    52  46  82 N5        29.56F
HOWELL         FOG       48  47  95 CALM      29.59S VSB 1/4

CITY           SKY/WX    TMP DP  RH WIND       PRES   REMARKS
JACKSON        CLOUDY    50  48  93 NE3       29.58S FOG
LAMBERTVILLE   SUNNY     59  50  71 E5        29.56S
LANSING        CLOUDY    43  40  89 N6        29.61S FOG
LAPEER         CLOUDY    48  48  98 CALM      29.60S FOG
MASON          CLOUDY    47  47 100 CALM      29.59S FOG
MONROE         PTSUNNY   53  50  92 NE7       29.57S FOG
MT. CLEMENS    FOG       45  45 100 CALM      29.60S VSB 1/16
PONTIAC        FOG       48  46  93 E5        29.58S VSB 1
PORT HOPE        N/A     42  42 100 SE5       29.62F
PORT HURON     FOG       46  46 100 CALM      29.62S VSB 1/4
TRI CITIES     FOG       42  42 100 NE5       29.63S VSB 1/16
MIDLAND        CLOUDY    43  42  97 E3        29.62S FOG
TROY           FOG       47  46  95 CALM      29.62S VSB 3/4
SAGINAW HB     FOG       41  39  93 N5        29.62S VSB 1/4
$$
MIZ043>046-050>051-056>058-064>065-071>073-077>080-222100-
SOUTHWEST LOWER MICHIGAN

CITY           SKY/WX    TMP DP  RH WIND       PRES   REMARKS
BATTLE CREEK   CLOUDY    44  43  96 NE5       29.59S FOG
BENTON HARBOR  FOG       42  41  96 VRB3      29.60S VSB 1
BIG RAPIDS     FOG       41  40  97 CALM      29.62S VSB 1
COLDWATER      CLOUDY    50  50 100 NE3       29.57S
FREMONT        CLOUDY    43  43 100 E3        29.61S
HOLLAND        CLOUDY    44  42  93 NE5       29.62S
GRAND RAPIDS   CLOUDY    42  40  92 N7        29.61F FOG
IONIA          CLOUDY    41  41  99 N6        29.61R FOG
KALAMAZOO      FOG       42  39  89 N9        29.60S VSB 3/4
LUDINGTON      CLOUDY    42  41  98 CALM      29.62S FOG
MARSHALL       CLOUDY    46  46  97 CALM      29.58S FOG
MOUNT PLEASANT CLOUDY    42  41  99 N5        29.62S
MUSKEGON       CLOUDY    48  40  73 CALM      29.62R
SOUTH HAVEN    FOG       42  42 100 N6        29.60S VSB 3/4
$$
MIZ016>042-222100-
NORTHERN LOWER MICHIGAN

CITY           SKY/WX    TMP DP  RH WIND       PRES   REMARKS
ALPENA         FOG       42  41  96 CALM      29.64S VSB 1/4
BEAVER ISLAND  CLOUDY    42  41  97 SE3       29.64S
BELLAIRE       CLOUDY    42  40  95 CALM      29.64R
CADILLAC       CLOUDY    41  40  97 CALM      29.61R
CHARLEVOIX     CLOUDY    41  41 100 CALM      29.66S
FRANKFORT      CLOUDY    42  41  94 W3        29.62S FOG
GAYLORD        CLOUDY    45  38  76 CALM      29.61S
GRAYLING       CLOUDY    43  41  91 S5        29.63R
HARBOR SPRINGS CLOUDY    39  38  97 CALM      29.63S
HOUGHTON LAKE  CLOUDY    43  39  86 CALM      29.62S
MANISTEE       CLOUDY    42  40  92 SW3       29.62S FOG
OSCODA         FOG       41  40  98 E3        29.63S VSB 1/4
PELLSTON       CLOUDY    42  40  92 CALM      29.64S FOG
ROGERS CITY    CLOUDY    39  38  96 CALM      29.65S FOG
TRAVERSE CITY  CLOUDY    44  38  79 NW3       29.62R
$$
MIZ007>008-015-222100-
EASTERN UPPER MICHIGAN

CITY           SKY/WX    TMP DP  RH WIND       PRES   REMARKS
KINROSS        FOG       36  36 100 E5        29.66S VSB 1/4 WCI  32
MACKINAC ISLAN FOG       35  35 100 E6        29.64S VSB<1/4 WCI  30
NEWBERRY       FOG       36  35  96 CALM      29.63S VSB 1/4
S. S. MARIE    CLOUDY    38  37  97 E6        29.66R FOG     WCI  33
MUNISING         N/A     40  37  89 S5        29.61S
$$
MIZ004>006-011>014-085-222100-
CENTRAL UPPER MICHIGAN

CITY           SKY/WX    TMP DP  RH WIND       PRES   REMARKS
MANISTIQUE     FOG       37  36  98 CALM      29.63R VSB 1/4
ESCANABA       CLOUDY    36  36 100 CALM      29.63S FOG
SAWYER-GWINN   CLOUDY    36  36 100 CALM      29.61S
$$
MIZ001>003-009>011-084-222100-
WESTERN UPPER MICHIGAN

CITY           SKY/WX    TMP DP  RH WIND       PRES   REMARKS
IRON MOUNTAIN  CLOUDY    38  35  89 CALM      29.60R
HOUGHTON       FOG       35  33  92 NW7       29.60S VSB 1/4 WCI  29
COPPER HARBOR    N/A     37  36  96 CALM      29.61S
IRONWOOD       CLOUDY    35  34  96 NW7       29.65S FOG     WCI  29
$$

ABBREVIATIONS USED IN REMARKS
   TC - TEMPERATURE IN CELSIUS
  WCI - WIND CHILL INDEX
   HX - HEAT INDEX
  VSB - VISIBILITY





USA.gov is the U.S. government's official web portal to all federal, state and local government web resources and services.